Weather History for Fort Worth Spinks, TX

Change the Weather History Date:

Friday, January 17, 2014

  Actual Average (KDFW) Record (KDFW)
Temperature  
Mean Temperature 43 °F 46 °F  
Max Temperature 53 °F 56 °F 79 °F (1952)
Min Temperature 33 °F 35 °F 2 °F (1930)
Degree Days  
Heating Degree Days 22 19  
Month to date heating degree days 334  
Since 1 July heating degree days 1246  
Cooling Degree Days 0 0  
Month to date cooling degree days 0  
Year to date cooling degree days 0  
Moisture  
Dew Point 17 °F    
Average Humidity 37    
Maximum Humidity 59    
Minimum Humidity 19    
Precipitation  
Precipitation 0.00 in 0.07 in 0.59 in (1995)
Month to date precipitation 1.07  
Year to date precipitation 1.07  
Snow  
Snow 0.00 in 0.00 in 0.70 in (1966)
Month to date snowfall 0.1  
Since 1 July snowfall 0.4  
Snow Depth -    
Sea Level Pressure  
Sea Level Pressure 30.27 in    
Wind  
Wind Speed 6 mph (NW)    
Max Wind Speed 21 mph    
Max Gust Speed -    
Visibility 11 miles    
Events      
T = Trace of Precipitation, MM = Missing Value Source: NWS Daily Summary

Daily Weather History Graph

Daily Weather History Graph

Search for Another Location

Airport:

Trip Planner

Search our weather history database for the weather conditions in past years. The results will help you decide how hot, cold, wet, or windy it might be!

Date:

Astronomy

Jan. 17, 2014 Rise Set
Actual Time 7:30 AM CST 5:48 PM CST
Civil Twilight 7:04 AM CST 6:14 PM CST
Nautical Twilight 6:34 AM CST 6:44 PM CST
Astronomical Twilight 6:04 AM CST 7:14 PM CST
Moon 7:27 PM CST (1/17) 8:06 AM CST (1/17)
Length of Visible Light 11h 10m
Length of Day
10h 17m
Full, 98% of the Moon is Illuminated
Jan 17
Full
Jan 23
Last Quarter
Jan 30
New
Feb 6
First Quarter
Feb 14
Full

Hourly Weather History & Observations

Time (CST) Temp. Windchill Dew Point Humidity Pressure Visibility Wind Dir Wind Speed Gust Speed Precip Events Conditions
12:15 AM 38.7 °F 35.2 °F 20.7 °F 48% 30.23 in 10.0 mi West 4.6 mph - N/A   Clear
12:35 AM 43.7 °F 39.7 °F 18.0 °F 36% 30.23 in 10.0 mi West 6.9 mph - N/A   Clear
12:55 AM 43.2 °F 39.7 °F 17.6 °F 36% 30.23 in 10.0 mi WNW 5.8 mph - N/A   Clear
1:15 AM 47.3 °F - 15.3 °F 28% 30.24 in 10.0 mi WNW 8.1 mph - N/A   Clear
1:35 AM 48.4 °F - 14.4 °F 26% 30.23 in 10.0 mi WNW 8.1 mph - N/A   Clear
1:55 AM 47.8 °F - 14.0 °F 26% 30.24 in 10.0 mi NW 8.1 mph - N/A   Clear
2:15 AM 47.8 °F - 13.6 °F 25% 30.25 in 10.0 mi WNW 8.1 mph - N/A   Scattered Clouds
2:35 AM 46.6 °F - 14.2 °F 27% 30.25 in 7.0 mi WNW 5.8 mph - N/A   Mostly Cloudy
2:55 AM 45.9 °F 43.6 °F 15.1 °F 29% 30.25 in 7.0 mi West 4.6 mph - N/A   Scattered Clouds
3:15 AM 45.0 °F 42.6 °F 16.7 °F 32% 30.26 in 7.0 mi West 4.6 mph - N/A   Scattered Clouds
3:35 AM 45.0 °F 42.6 °F 17.2 °F 33% 30.26 in 7.0 mi West 4.6 mph - N/A   Scattered Clouds
3:55 AM 44.2 °F - 19.4 °F 37% 30.27 in 7.0 mi Calm Calm - N/A   Clear
4:15 AM 45.5 °F - 16.9 °F 32% 30.27 in 7.0 mi Calm Calm - N/A   Scattered Clouds
4:35 AM 44.4 °F 40.5 °F 17.1 °F 33% 30.27 in 7.0 mi NW 6.9 mph - N/A   Scattered Clouds
4:55 AM 46.9 °F - 15.4 °F 28% 30.27 in 7.0 mi NNW 9.2 mph - N/A   Scattered Clouds
5:15 AM 47.7 °F - 15.3 °F 27% 30.28 in 7.0 mi NNW 8.1 mph - N/A   Clear
5:35 AM 45.9 °F 41.7 °F 15.1 °F 29% 30.29 in 7.0 mi NNW 8.1 mph - N/A   Clear
5:55 AM 44.6 °F 39.7 °F 16.5 °F 32% 30.30 in 7.0 mi NNW 9.2 mph - N/A   Clear
6:15 AM 45.7 °F 39.8 °F 15.6 °F 30% 30.31 in 7.0 mi North 12.7 mph - N/A   Clear
6:50 AM 42.8 °F 36.6 °F 15.8 °F 34% 30.33 in 10.0 mi North 11.5 mph - N/A   Clear
7:55 AM 37.4 °F 32.8 °F 17.6 °F 45% 30.35 in 10.0 mi North 5.8 mph - N/A   Clear
8:54 AM 44.6 °F 38.8 °F 15.8 °F 31% 30.37 in 10.0 mi North 11.5 mph - N/A   Clear
9:52 AM 46.4 °F 39.0 °F 14.0 °F 27% 30.39 in 10.0 mi North 19.6 mph - N/A   Clear
10:50 AM 48.2 °F - 14.0 °F 25% 30.40 in 10.0 mi NNW 20.7 mph - N/A   Clear
12:54 PM 51.8 °F - 12.2 °F 21% 30.33 in 20.0 mi NNE 5.8 mph - N/A   Clear
1:52 PM 51.8 °F - 10.4 °F 19% 30.30 in 20.0 mi NW 12.7 mph - N/A   Clear
2:48 PM 53.6 °F - 12.2 °F 19% 30.29 in 20.0 mi North 9.2 mph - N/A   Clear
3:47 PM 53.6 °F - 12.2 °F 19% 30.28 in 20.0 mi North 5.8 mph - N/A   Clear
4:50 PM 53.6 °F - 14.0 °F 21% 30.27 in 20.0 mi WNW 5.8 mph - N/A   Clear
5:49 PM 51.8 °F - 12.2 °F 21% 30.27 in 20.0 mi Calm Calm - N/A   Clear
6:50 PM 42.8 °F - 17.6 °F 36% 30.27 in 20.0 mi Calm Calm - N/A   Clear
7:55 PM 38.1 °F 34.6 °F 18.0 °F 44% 30.27 in 10.0 mi SW 4.6 mph - N/A   Clear
8:15 PM 39.0 °F - 19.0 °F 45% 30.27 in 10.0 mi Calm Calm - N/A   Clear
8:35 PM 34.5 °F - 20.7 °F 57% 30.27 in 10.0 mi Calm Calm - N/A   Clear
8:55 PM 34.3 °F - 19.4 °F 54% 30.27 in 10.0 mi Calm Calm - N/A   Clear
9:15 PM 34.3 °F - 19.8 °F 55% 30.26 in 10.0 mi Calm Calm - N/A   Clear
9:35 PM 33.3 °F - 19.4 °F 57% 30.26 in 10.0 mi Calm Calm - N/A   Clear
9:55 PM 34.9 °F 32.0 °F 19.4 °F 53% 30.25 in 10.0 mi SSW 3.5 mph - N/A   Clear
10:15 PM 35.1 °F - 19.6 °F 53% 30.24 in 10.0 mi Calm Calm - N/A   Clear
10:35 PM 36.0 °F 33.3 °F 19.4 °F 51% 30.24 in 10.0 mi South 3.5 mph - N/A   Clear
10:55 PM 33.1 °F 30.0 °F 20.1 °F 59% 30.23 in 10.0 mi SSW 3.5 mph - N/A   Clear
11:15 PM 33.3 °F 30.2 °F 19.9 °F 58% 30.23 in 10.0 mi SSW 3.5 mph - N/A   Clear
11:35 PM 34.3 °F 31.4 °F 19.0 °F 54% 30.22 in 10.0 mi SSW 3.5 mph - N/A   Clear
11:55 PM 33.6 °F 30.6 °F 19.2 °F 56% 30.21 in 10.0 mi South 3.5 mph - N/A   Clear